Regional Weather Roundup
Issued by NWS Wakefield, VA

Home | Current Version | Previous Version | Graphics & Text | Print | Product List | Glossary On
Versions: 1 2 3 4 5 6 7 8 9 10 11 12 13 14 15 16 17 18 19 20 21 22 23 24 25 26 27
000
ASUS41 KAKQ 050515
RWRAKQ

REGIONAL WEATHER ROUNDUP
NATIONAL WEATHER SERVICE WAKEFIELD VA
100 AM EDT THU MAY 05 2016

Note: "fair" indicates few or no clouds below 12,000 feet with no
significant weather and/or obstructions to visibility. * = Denotes
station may not report precipitation (e.g., rain,snow,etc.),
thunder or fog.

VAZ042-051-052>054-056-050600-
NORTHERN VIRGINIA

CITY           SKY/WX    TMP DP  RH WIND       PRES   REMARKS
WASH NATIONAL  CLOUDY    53  49  86 E12       29.70F
DULLES         CLOUDY    53  49  86 E9        29.70S
FORT BELVOIR   CLOUDY    53  49  85 VRB1      29.70R
QUANTICO       CLOUDY    55  52  88 E12       29.70S
FREDERICKSBRG* CLOUDY    55  55 100 NE5       29.68S
STAFFORD*      CLOUDY    53  51  90 NE3       29.73S
WARRENTON      CLOUDY    55  49  80 E3        29.69S
CULPEPER*      LGT RAIN  55  53  95 CALM      29.70S
MANASSAS*      CLOUDY    54  52  94 E5        29.69F
LEESBURG*      CLOUDY    54  54 100 CALM      29.70F
WINCHESTER     LGT RAIN  54  52  94 E7        29.68F
FRONT ROYAL*   CLOUDY    52  52 100 CALM      29.66F
LURAY*         CLOUDY    52  52 100 N5        29.67S
$$

VAZ048-049-060>072-079>083-050600-
CENTRAL AND SOUTH CENTRAL VIRGINIA

CITY           SKY/WX    TMP DP  RH WIND       PRES   REMARKS
RICHMOND       DRIZZLE   54  54 100 NE6       29.65F FOG
CHESTERFIELD*  CLOUDY    55  43  62 NE7       29.66F
PETERSBURG*    CLOUDY    59  57  92 E7        29.65S
HANOVER        CLOUDY    56  53  90 VRB3      29.68S
TAPPAHANNOCK*  CLOUDY    56  55  97 NE7       29.67F
QUINTON*       CLOUDY    55  55  99 E6        29.65F
CHARLOTTSVILLE CLOUDY    56  53  90 E7        29.66S
GORDONSVILLE*  CLOUDY    54  54  99 NE7       29.67S
ORANGE*        LGT RAIN  54  54 100 CALM      29.70R
LOUISA*        RAIN      57  55  94 E3        29.66F
BUMPASS*       CLOUDY    54  53  97 E3        29.67F
FARMVILLE*     CLOUDY    59  56  89 NE7       29.63F
CREWE*         CLOUDY    57  57 100 NE5       29.63F
FORT PICKETT*  NOT AVBL
CHASE CITY*    MOCLDY    55  53  94 CALM      29.62S
CLARKSVILLE*   FAIR      52  52 100 NE6       29.61S
SOUTH HILL*    CLOUDY    58  57  96 CALM      29.67F
LAWRENCEVILLE* CLOUDY    57  57  98 E6        29.62F
EMPORIA*       CLOUDY    57  55  94 NE6       29.64F
$$

VAZ088>098-050600-
SOUTHEAST VIRGINIA

CITY           SKY/WX    TMP DP  RH WIND       PRES   REMARKS
NORFOLK        CLOUDY    54  51  90 NE9       29.64F
VIRGINIA BEACH CLOUDY    56  51  84 NE10      29.65R FOG
NORFOLK NAVAL  CLOUDY    55  53  93 E9        29.67S
WEST POINT*    CLOUDY    56  54  93 NE5       29.67F
SALUDA*        CLOUDY    54  54  99 NE6       29.66F
NEWPORT NEWS   CLOUDY    55  54  96 NE8       29.65F
LANGLEY AFB    CLOUDY    55  53  94 E13       29.65S
FORT EUSTIS    CLOUDY    56  55  94 E7        29.63F
WILLIAMSBURG*  CLOUDY    57  57 100 CALM      29.66S
HR EXEC AP*    CLOUDY    55  52  88 E9        29.67F
FRANKLIN*      CLOUDY    55  53  92 NE7       29.65S
US460-WAKEFLD  CLOUDY    56  54  93 CALM      29.64F
$$

VAZ020-022-025-037-045-050600-
WEST CENTRAL AND SOUTHWEST VIRGINIA

CITY           SKY/WX    TMP DP  RH WIND       PRES   REMARKS
STAUNTON*      MOCLDY    53  51  93 N3        29.68F
WAYNESBORO*    CLOUDY    50  49  95 W8        29.66S
HOT SPRINGS VA CLOUDY    44  40  86 NW9       29.66F
LYNCHBURG      MOCLDY    55  51  86 NE7       29.65S
DANVILLE       MOCLDY    50  49  96 CALM      29.62F
SOUTH BOSTON*  FAIR      51  50  95 CALM      29.61F
MARTINSVILLE   FAIR      47  46  99 CALM      29.67S
ROANOKE        CLOUDY    56  44  64 NW6       29.67S
BLACKSBURG     MOCLDY    51  44  77 CALM      29.70F
DUBLIN*        CLOUDY    52  45  77 CALM      29.69F
MARION*        CLOUDY    48  43  82 W9        29.70F
HILLSVILLE*    CLOUDY    49  42  76 NW8       29.66F
RICHLANDS*     LGT RAIN  44  33  65 CALM      29.71S
WISE*          CLOUDY    45  45 100 NW9       29.74S
ABINGDON*      DRIZZLE   47  44  88 W5        29.72S
$$

MDZ021>025-VAZ099-100-050600-
SOUTHERN MARYLAND AND THE DELMARVA PENINSULA

CITY           SKY/WX    TMP DP  RH WIND       PRES   REMARKS
PATUXENT RIVER CLOUDY    52  48  86 E9        29.69S
BAY BRIDGE APT NOT AVBL
LEONARDTOWN    CLOUDY    52  48  87 E5        29.70F
DOVER          CLOUDY    48  48 100 NE10      29.70S
GEORGETOWN     CLOUDY    50  47  89 NE13      29.71R
EASTON         CLOUDY   N/A N/A N/A E5        29.74S
CAMBRIDGE      CLOUDY    50  46  87 NE8       29.70S
SALISBURY      CLOUDY    50  47  89 NE12      29.68F
OCEAN CITY     CLOUDY    50  47  89 NE13G22   29.68F
WALLOPS ISLAND CLOUDY    52  48  86 NE13      29.68S
ACCOMACK*      CLOUDY    52  30  43 NE9       29.66F
$$

NCZ012>017-030>032-050600-
NORTH CENTRAL AND EASTERN NORTH CAROLINA

CITY           SKY/WX    TMP DP  RH WIND       PRES   REMARKS
ROANOKE RAPIDS CLOUDY    59  59 100 NE6       29.61F
RALEIGH        PTCLDY    56  51  84 CALM      29.62F
ELIZABETH CITY CLOUDY    56  54  93 NE9       29.64S
AHOSKIE*       LGT RAIN  58  56  93 NE5       29.62F
EDENTON*       NOT AVBL
CURRITUCK*     NOT AVBL
KILL DEVIL HLS CLOUDY    55  55  98 N3        29.62S
MANTEO         CLOUDY    56  56  97 NE12      29.63S
CAPE HATTERAS  CLOUDY    59  57  93 NE13G20   29.61S
TARBORO*       CLOUDY    63  61  94 N7        29.61F
GOLDSBORO      CLOUDY    62  62 100 CALM      29.57F
WASHINGTON     FOG       60  58  96 E13       29.61S VSB 1/2
GREENVILLE     CLOUDY    63  63 100 E7        29.64S
NEW BERN       CLOUDY    64  62  93 E7        29.60F
WILMINGTON     MOCLDY    63  59  87 NW6       29.58F
$$

VAZ048-050600-
ELSEWHERE

CITY           SKY/WX    TMP DP  RH WIND       PRES   REMARKS
HARRISBURG PA  CLOUDY    50  46  86 E6        29.72S
BALTIMORE      CLOUDY    50  47  89 E12       29.70F
ANNAPOLIS      CLOUDY    52  48  86 NE6       29.70F
ANDREWS AFB    CLOUDY    50  48  93 NE12      29.68F
PHILADELPHIA   CLOUDY    51  46  83 E8        29.73S
HENDERSON NC   CLEAR     53  53 100 CALM      29.61S
GREENSBORO     MOCLDY    55  45  68 CALM      29.62F
ROCKY MOUNT    CLOUDY    60  59  96 CALM      29.59F
$$

VAZ100-050600-
MARINE

STATION/POSITION TIME  TEMP    WIND        PRES    WAVE   SWELL
                       AIR SEA DIR/SP/G            HT/PER HT/PER
                 (UTC) (F)     (DEG/KT/KT) (MB)    (FT/S) (FT/S)
BRANDYWINE LGT   0400   50      70/ 17/ 20 1005.8F
CAPE MAY NJ      0400   49 57   50/  8/ 16 1005.6F
LEWES DE         0400   50 55   70/ 19/ 22 1005.9F
15NM E FENWICK I 0450   49 51              1004.8F   7/ 7
OCEAN-CITY-INLET 0400   50 55   70/  9/ 16 1004.6F
WACHAPREAGUE VA  0400   53 60   40/ 15/ 19 1004.4R
THOMAS POINT MD  0500   51 58   80/  9/ 11 1007.1F
GOOSES REEF MD   0400   53 59   70/ 12/ 14 1006.7F   2/ 3
COVE POINT MD    0400   52      80/ 10/ 14 1006.0S
SOLOMONS ISLAND  0400   53 60   50/  8/ 10   N/A
BISHOPS HEAD MD  0400   52 61   50/ 12/ 15 1004.5R
PINEY POINT MD   0400           80/  7/  8   N/A
POTOMAC MD       0400   54 60   70/ 10/ 14 1004.2R   1/ 3
CAMBRIDGE MD     0400   52 61   50/ 12/ 14 1005.0R
LEWISETTA VA     0400   55 62   80/ 10/ 13 1004.9R
RAPPAHANNOCK LGT 0400           60/ 11/ 13 1005.4S
STINGRAY PT      0400   56 62   90/ 10/ 12 1005.1S   2/ 3
YORK RVR RNG VA  0400   55      90/  9/ 11 1003.9F
YORKTOWN VA      0400   56 63  100/ 11/ 13 1004.2F
JAMESTOWN VA     0400   58 68  100/  6/ 10   N/A
DOMINION TERM VA 0400   55      80/ 11/ 15 1004.4F
KIPTOPEKE VA     0400      62   50/  8/ 12   N/A
CHES BAY BRIDGE  0400   53 60   30/ 13/ 15 1003.7F
CAPE HENRY VA    0400   52      40/ 10/ 14   N/A
CHESAPEAKE LGHT  0400   51      30/ 15/ 17 1004.6F
WILLOUBY STN VA  0400   54      60/ 10/ 13 1005.2F
CAPE HENRY BUOY  0412      56                N/A     4/ 5
CAPE CHARLES BUO 0426      58                N/A     4/ 5   2/ 9
OFFSHORE WE BUOY 0421      56                N/A     4/ 6   2/ 7
64NM E OF VA BCH 0450   52 54   20/ 14/ 16 1002.4F   4/ 7   2/ 7
DUCK PIER NC     0400   55 60   30/ 12/ 12 1002.9F
44100 DUCK FRF   0424      58                N/A     3/ 7
44056 DUCK FRF   0411      59                N/A     3/ 4
OREGON INLET NC  0400   57 65   10/ 10/ 15 1002.8F
HATTERAS NC      0400   62 70   30/ 12/ 18 1002.2R
DIAMOND SHLS NC  0450   62 70   20/ 17/ 21 1002.3R   4/ 8   2/ 8
CAPE LOOKOUT NC  0400   65      30/ 14/ 16 1001.5F
$$




USA.gov is the U.S. government's official web portal to all federal, state and local government web resources and services.